Regional Weather Roundup
Issued by NWS Memphis, TN

Home | Current Version | Previous Version | Text Only | Print | Product List | Glossary On
Versions: 1 2 3 4 5 6 7 8 9 10 11 12 13 14 15 16 17 18 19 20 21 22 23 24 25 26 27 28 29 30 31 32 33 34 35 36 37 38 39 40 41 42 43 44 45 46 47 48 49 50
000
ASUS44 KMEG 180710
RWRMEG
MEMPHIS CWA HOURLY WEATHER ROUNDUP
NATIONAL WEATHER SERVICE MEMPHIS TN
100 AM CST MON DEC 18 2017

...WEST TENNESSEE...

CITY           SKY/WX    TMP DP  RH WIND       PRES   REMARKS
MEMPHIS INTL   CLOUDY    46  45  96 SW8       30.14R
NWS MEMPHIS      N/A     47 N/A N/A MISG        N/A
JACKSON        CLOUDY    47  47 100 SW3       30.13F
COVINGTON      CLOUDY    46  46 100 CALM      30.13F FOG
SOMERVILLE     CLOUDY    46  46 100 SW3       30.12R FOG
BOLIVAR        CLOUDY    46  45  93 CALM      30.13R
LEXINGTON      FOG       46  46 100 CALM      30.13S VSB 1/4
SELMER         CLOUDY    46  46 100 CALM      30.12R FOG
SAVANNAH       CLOUDY    48  46  93 CALM      30.12S FOG
DYERSBURG      CLOUDY    45  44  97 SW3       30.14F FOG
UNION CITY     CLOUDY    45  45 100 CALM      30.12F FOG
PARIS          CLOUDY    45  45 100 SW5       30.12S FOG
HUNTINGDON     CLOUDY    46  46 100 CALM      30.12S FOG


...EASTERN ARKANSAS...

CITY           SKY/WX    TMP DP  RH WIND       PRES   REMARKS
JONESBORO      CLOUDY    45  45 100 SW7       30.13S FOG
WEST MEMPHIS   CLOUDY    45  45 100 SW6       30.14R FOG
NEWPORT        CLOUDY    44  44 100 SW5       30.14S FOG
WALNUT RIDGE   CLOUDY   N/A N/A N/A S9        30.12F FOG
BLYTHEVILLE    CLOUDY    45  45 100 SW8       30.14S FOG
SEARCY         CLOUDY    45  45 100 SW3       30.15S
STUTTGART      CLOUDY    44  43  96 SW6       30.16S
PINE BLUFF     CLOUDY    44  43  96 SW3       30.15F
MONTICELLO     CLOUDY    45  43  93 W3        30.16R FOG


...NORTH MISSISSIPPI...

CITY           SKY/WX    TMP DP  RH WIND       PRES   REMARKS
TUPELO         FOG       48  46  93 CALM      30.14S VSB 1/2
BATESVILLE     CLOUDY    48  46  92 CALM      30.15F FOG
TUNICA           N/A    N/A N/A N/A W6        30.16S FOG
CLARKSDALE     CLOUDY    46  46 100 W3        30.15F FOG
CORINTH        CLOUDY    48  48 100 CALM      30.13R FOG
GREENWOOD      CLOUDY    50  50 100 CALM      30.15R FOG
COLUMBUS       CLOUDY    49  49 100 SE3       30.14S
STARKVILLE     CLOUDY    48  48 100 CALM      30.15F FOG
GOLDEN TRIANGL CLOUDY    49  48  97 SE6       30.15S


...SOUTHEAST MISSOURI...

CITY           SKY/WX    TMP DP  RH WIND       PRES   REMARKS
KENNETT        CLOUDY    45  45 100 S6        30.12S FOG
MALDEN         CLOUDY    46  45  93 S7        30.12F FOG
WEST PLAINS    FOG       45  45 100 S5        30.07F VSB 1/4
POPLAR BLUFF   CLOUDY    45  44  97 S7        30.10F FOG
CAPE GIRARDEAU CLOUDY    45  43  93 S5        30.10F FOG


...NORTHWEST ALABAMA...

CITY           SKY/WX    TMP DP  RH WIND       PRES   REMARKS
MUSCLE SHOALS  CLOUDY    49  46  90 SE6       30.15S


...MIDDLE TENNESSEE...

CITY           SKY/WX    TMP DP  RH WIND       PRES   REMARKS
NASHVILLE      CLOUDY    47  46  97 S5        30.14S FOG
CLARKSVILLE    CLOUDY    46  43  89 SW6       30.13S FOG
COLUMBIA       CLOUDY    46  46 100 CALM      30.11F FOG


...WESTERN KENTUCKY...

CITY           SKY/WX    TMP DP  RH WIND       PRES   REMARKS
PADUCAH        CLOUDY    45  43  93 SW6       30.12S FOG
FORT CAMPBELL  CLOUDY    45  45 100 SW8       30.12S FOG


...CENTRAL ARKANSAS...

CITY           SKY/WX    TMP DP  RH WIND       PRES   REMARKS
LITTLE ROCK    DRIZZLE   44  44 100 S5        30.16R FOG


SKY/WX REPORTED AS FAIR MEANS FEW OR NO CLOUDS BELOW
12 THOUSAND FEET.





USA.gov is the U.S. government's official web portal to all federal, state and local government web resources and services.